[[{"header":{"parameterUnit":"m.s-1","parameterCategory":1,"la1":30.2991,"la2":30.254,"lo1":-89.0895,"lo2":-89.0444,"dy":0.0017,"dx":0.0017,"nx":28,"ny":28,"refTime":"2024-03-26T21:00:00:Z","depth":0,"parameterNumber":2,"parameterNumberName":"U-component_of_WINDS"},"data":[0,0,0,0,0,0,0,0,0,0,0,0,0,0,0,0,0,0,0,0,0,0,0,0,0,0,0,0,0,0,0,0,0,0,0,0,0,0,0,0,0,0,0,0,0,0,0,0,0,0,0,0,0,0,0,0,0,0,0.2995,0.2995,0,0.3012,0.3012,0.3012,0.2964,0.2962,0.2961,0.296,0.298,0.2982,0.2984,0,0,0,0,0,0,0,0,0,0,0,0,0,0.2924,0.2925,0.2995,0.2995,0.2995,0.3011,0.3012,0.3012,0.2964,0.2962,0.2961,0.2959,0.2979,0.2982,0.2984,0,0,0,0,0,0,0,0,0,0,0,0,0,0.2949,0.2926,0.2994,0.2973,0.2971,0.3011,0.3012,0.3012,0.2965,0.2962,0.296,0.2958,0.2979,0.2981,0.2984,0.3047,0,0,0.2993,0.2994,0,0,0,0,0,0,0,0,0.2948,0.2952,0.2976,0.2975,0.2973,0.2983,0.2994,0.3024,0.2965,0.2967,0.296,0.2957,0.2983,0.2985,0.2994,0.3048,0.3049,0.2993,0.2995,0.2996,0.2997,0,0,0,0,0,0,0,0.2946,0.2951,0.3001,0.2976,0.2974,0.2964,0.2965,0.3,0.2988,0.2967,0.2963,0.2966,0.2982,0.2991,0.2994,0.3049,0.2993,0.2996,0.2998,0.2999,0.3156,0.3158,0,0,0,0,0,0,0.2946,0.2949,0.3001,0.3002,0.2954,0.2967,0.2968,0.2982,0.2987,0.2986,0.2968,0.2964,0.2987,0.299,0.2994,0.3068,0.2996,0.2999,0.3001,0.3153,0.3156,0.3159,0,0,0,0,0,0,0.2945,0.2952,0.3,0.2975,0.298,0.297,0.2987,0.2984,0.2993,0.2988,0.2986,0.2979,0.2985,0.299,0.3034,0.3068,0.3,0.3003,0.315,0.3154,0.3158,0.3216,0,0,0,0,0,0,0.2943,0.2951,0.2974,0.2976,0.2982,0.3039,0.2989,0.2986,0.2998,0.2992,0.2998,0.2997,0.2984,0.303,0.3037,0.3071,0.3005,0.3147,0.3152,0.3156,0.3211,0.3221,0.323,0,0,0,0,0,0.2941,0.2991,0.2976,0.2982,0.301,0.3041,0.3044,0.3028,0.3,0.3024,0.3021,0.2997,0.3063,0.3035,0.3042,0.3077,0.3145,0.3151,0.3156,0.3207,0.3219,0.3229,0,0,0,0,0,0,0.2994,0.299,0.2974,0.3025,0.3034,0.3033,0.3062,0.3042,0.3059,0.3053,0.3033,0.3035,0.3083,0.3084,0.3053,0.3139,0.31,0.3107,0.3135,0.3147,0.3156,0.3155,0.3008,0,0,0,0,0,0.3012,0.3037,0.3032,0.3078,0.3083,0.3072,0.3085,0.3071,0.3079,0.3083,0.3083,0.3093,0.3116,0.3132,0.3153,0.3211,0.3212,0.3239,0.3248,0.3256,0.3263,0.3294,0.3306,0.3177,0.3177,0.3177,0,0,0.3049,0.305,0.3067,0.3089,0.3094,0.312,0.3075,0.3105,0.3125,0.3088,0.3129,0.3129,0.3139,0.319,0.3213,0.3194,0.3299,0.3263,0.3269,0.3272,0.3301,0.3313,0.3324,0.3181,0.318,0.3179,0,0,0.313,0.3133,0.3171,0.3177,0.3185,0.3177,0.3186,0.3189,0.3187,0.3228,0.3201,0.3225,0.3265,0.3273,0.3282,0.3367,0.3345,0.3374,0.3424,0.3454,0.3465,0.3474,0.3504,0.3515,0.3381,0.3381,0.3381,0,0.3175,0.3213,0.3194,0.3226,0.3236,0.3203,0.3243,0.3249,0.3264,0.3273,0.3251,0.33,0.3305,0.3357,0.3378,0.3387,0.3397,0.3373,0.3465,0.3473,0.3481,0.351,0.3522,0.3384,0.3384,0.3384,0.3383,0,0.3268,0.3295,0.3326,0.334,0.3354,0.3389,0.3376,0.3393,0.3379,0.3374,0.3416,0.342,0.3442,0.3453,0.344,0.3505,0.3492,0.3468,0.3428,0.3498,0.3524,0.3535,0.3389,0.3388,0.3387,0.3386,0,0,0.3383,0.3386,0.3397,0.3403,0.341,0.3431,0.3465,0.3485,0.35,0.3512,0.3541,0.3576,0.3553,0.3564,0.3551,0.3578,0.3645,0.355,0.355,0.3568,0.3717,0.3736,0.3749,0.3631,0.3633,0.3635,0.3717,0,0.3462,0.352,0.3504,0.3562,0.3587,0.3557,0.3587,0.3595,0.3591,0.3613,0.3609,0.3634,0.3602,0.3609,0.3634,0.3632,0.3675,0.3626,0.3659,0.366,0.3657,0.3763,0.3782,0.3859,0.3727,0.3729,0.373,0,0.3563,0.3577,0.3638,0.364,0.365,0.3677,0.3695,0.3715,0.3724,0.372,0.3732,0.3714,0.3749,0.3709,0.3758,0.3725,0.3737,0.3738,0.3741,0.3743,0.3699,0.3768,0.3883,0.3895,0.3746,0.3745,0.3744,0,0.364,0.3675,0.3716,0.3722,0.3726,0.3746,0.3749,0.3755,0.3768,0.3784,0.3792,0.3812,0.3823,0.3839,0.3828,0.38,0.3878,0.3838,0.3876,0.3877,0.3894,0.3893,0.4013,0.3903,0.3902,0.3902,0.3902,0,0.3731,0.3769,0.3751,0.3776,0.3818,0.38,0.3843,0.3842,0.3848,0.3873,0.3848,0.3873,0.3856,0.3879,0.3871,0.3912,0.3918,0.3916,0.3913,0.3918,0.3918,0.3926,0.392,0.3905,0.3905,0.3904,0.3904,0,0.3824,0.3813,0.3856,0.3856,0.3857,0.3888,0.3889,0.3912,0.3907,0.394,0.3946,0.3938,0.3965,0.3955,0.3983,0.3977,0.403,0.4021,0.4027,0.4025,0.4064,0.4061,0.4193,0.421,0.4089,0.409,0.4091,0,0.3882,0.3911,0.3914,0.3928,0.3933,0.3957,0.397,0.3953,0.3968,0.3981,0.4003,0.4027,0.4045,0.4089,0.4087,0.4108,0.4099,0.4144,0.4102,0.4106,0.41,0.4098,0.4101,0.4152,0.4154,0.4155,0.4156,0,0.3987,0.398,0.3999,0.4017,0.4033,0.4047,0.4058,0.4072,0.4056,0.4075,0.41,0.4115,0.4143,0.4168,0.4187,0.4191,0.4172,0.4169,0.4179,0.4184,0.4187,0.4186,0.405,0.4166,0.4165,0.4164,0.4164,0.4163,0.4064,0.4088,0.4094,0.4117,0.4123,0.4135,0.4157,0.4155,0.4176,0.4197,0.4186,0.4217,0.4226,0.425,0.4257,0.4281,0.4264,0.4278,0.4282,0.4286,0.4291,0.4183,0.4285,0.4284,0.4284,0.4284,0.4284,0,0.4167,0.4169,0.419,0.4207,0.4225,0.4204,0.4216,0.4232,0.4259,0.4269,0.4287,0.4317,0.4341,0.4341,0.4363,0.4383,0.4374,0.4389,0.4388,0.4389,0.4305,0.4294,0.4396,0.4396,0.4396,0.4396,0.4396,0.4396,0.4222,0.4262,0.4256,0.43,0.4302,0.4331,0.434,0.435,0.4358,0.4392,0.4412,0.4411,0.4417,0.444,0.4461,0.446,0.447,0.4488,0.4484,0.4406,0.4395,0.4384,0.4374,0.449,0.449,0.4566,0.4566,0.4567]},{"header":{"parameterUnit":"m.s-1","parameterCategory":1,"la1":30.2991,"la2":30.254,"lo1":-89.0895,"lo2":-89.0444,"dy":0.0017,"dx":0.0017,"nx":28,"ny":28,"refTime":"2024-03-26T21:00:00:Z","depth":0,"parameterNumber":3,"parameterNumberName":"V-component_of_WINDS"},"data":[0,0,0,0,0,0,0,0,0,0,0,0,0,0,0,0,0,0,0,0,0,0,0,0,0,0,0,0,0,0,0,0,0,0,0,0,0,0,0,0,0,0,0,0,0,0,0,0,0,0,0,0,0,0,0,0,0,0,-1.4592,-1.4595,0,-1.482,-1.4823,-1.4826,-1.4911,-1.4911,-1.491,-1.4909,-1.5145,-1.5152,-1.5159,0,0,0,0,0,0,0,0,0,0,0,0,0,-1.4233,-1.4239,-1.4592,-1.4595,-1.4598,-1.482,-1.4823,-1.4826,-1.4911,-1.491,-1.491,-1.4909,-1.5143,-1.5151,-1.5159,0,0,0,0,0,0,0,0,0,0,0,0,0,-1.4418,-1.4241,-1.4591,-1.4667,-1.4676,-1.4819,-1.4823,-1.4827,-1.4912,-1.491,-1.4909,-1.4908,-1.514,-1.515,-1.5161,-1.5246,0,0,-1.5192,-1.5197,0,0,0,0,0,0,0,0,-1.4407,-1.4431,-1.4653,-1.4662,-1.4672,-1.4836,-1.4783,-1.4968,-1.4912,-1.4822,-1.4909,-1.4908,-1.5043,-1.5062,-1.5107,-1.5257,-1.5268,-1.5193,-1.52,-1.5204,-1.5207,0,0,0,0,0,0,0,-1.4394,-1.4421,-1.4682,-1.4656,-1.4668,-1.469,-1.4715,-1.4818,-1.4936,-1.483,-1.4837,-1.4862,-1.5048,-1.5097,-1.5113,-1.5271,-1.5193,-1.5202,-1.5209,-1.5213,-1.5506,-1.5507,0,0,0,0,0,0,-1.4368,-1.441,-1.4675,-1.4689,-1.4534,-1.4698,-1.4726,-1.4785,-1.4935,-1.4957,-1.4863,-1.4865,-1.5079,-1.5101,-1.5122,-1.5234,-1.5204,-1.5214,-1.522,-1.5504,-1.5506,-1.5508,0,0,0,0,0,0,-1.436,-1.4391,-1.4666,-1.4552,-1.4588,-1.4705,-1.4771,-1.479,-1.4838,-1.496,-1.4982,-1.489,-1.5079,-1.5107,-1.5215,-1.5243,-1.5219,-1.5228,-1.5502,-1.5505,-1.5507,-1.5457,0,0,0,0,0,0,-1.435,-1.4388,-1.4421,-1.4552,-1.4594,-1.4754,-1.4772,-1.4795,-1.4856,-1.4861,-1.4992,-1.5012,-1.5081,-1.5199,-1.5225,-1.5257,-1.5236,-1.55,-1.5503,-1.5506,-1.5457,-1.5458,-1.5458,0,0,0,0,0,-1.4336,-1.4398,-1.4422,-1.4454,-1.4638,-1.4756,-1.478,-1.4857,-1.4857,-1.4892,-1.4971,-1.5008,-1.5235,-1.5209,-1.524,-1.5275,-1.5499,-1.5503,-1.5506,-1.5457,-1.5458,-1.5458,0,0,0,0,0,0,-1.4268,-1.4416,-1.4445,-1.455,-1.464,-1.477,-1.4816,-1.4855,-1.4947,-1.4948,-1.504,-1.5069,-1.517,-1.5233,-1.5202,-1.5367,-1.537,-1.538,-1.5322,-1.5324,-1.5324,-1.5308,-1.5245,0,0,0,0,0,-1.4265,-1.4347,-1.4473,-1.4554,-1.4597,-1.4699,-1.4753,-1.4804,-1.4901,-1.494,-1.5026,-1.5119,-1.5212,-1.5271,-1.5363,-1.5466,-1.5497,-1.5506,-1.5506,-1.5506,-1.5514,-1.5575,-1.5581,-1.5519,-1.5519,-1.5519,0,0,-1.426,-1.4351,-1.4398,-1.4542,-1.4618,-1.4703,-1.473,-1.4818,-1.4883,-1.4953,-1.5061,-1.5128,-1.5238,-1.5344,-1.5395,-1.54,-1.5538,-1.551,-1.5509,-1.5518,-1.5579,-1.5585,-1.559,-1.5521,-1.5521,-1.5521,0,0,-1.4294,-1.437,-1.4447,-1.4522,-1.4636,-1.4703,-1.4721,-1.4846,-1.4893,-1.5002,-1.5058,-1.5136,-1.5293,-1.537,-1.5429,-1.5493,-1.5532,-1.5521,-1.5525,-1.5583,-1.5588,-1.5593,-1.5618,-1.5625,-1.5528,-1.5528,-1.5528,0,-1.4274,-1.4403,-1.4482,-1.4568,-1.4631,-1.4698,-1.4777,-1.4846,-1.4984,-1.5026,-1.5029,-1.5229,-1.5308,-1.5434,-1.545,-1.5495,-1.552,-1.5507,-1.5581,-1.5586,-1.5592,-1.5617,-1.5626,-1.5526,-1.5526,-1.5526,-1.5526,0,-1.4373,-1.4462,-1.451,-1.4642,-1.471,-1.4791,-1.4884,-1.4944,-1.4989,-1.5056,-1.5168,-1.5264,-1.5378,-1.5411,-1.5456,-1.5545,-1.5544,-1.5563,-1.5568,-1.5595,-1.562,-1.563,-1.5523,-1.5524,-1.5524,-1.5525,0,0,-1.4371,-1.4545,-1.4562,-1.4623,-1.4754,-1.4825,-1.491,-1.5021,-1.5071,-1.5163,-1.5239,-1.537,-1.5389,-1.5456,-1.5511,-1.5562,-1.5609,-1.5575,-1.5579,-1.5579,-1.5714,-1.5701,-1.571,-1.5634,-1.5636,-1.5638,-1.5706,0,-1.4425,-1.458,-1.4654,-1.4777,-1.4861,-1.4926,-1.5001,-1.509,-1.5155,-1.5237,-1.5309,-1.5402,-1.5418,-1.5459,-1.5512,-1.5592,-1.5638,-1.5588,-1.5707,-1.5711,-1.5679,-1.5723,-1.5709,-1.5768,-1.5716,-1.5718,-1.5719,0,-1.4507,-1.46,-1.4731,-1.4853,-1.4891,-1.4957,-1.5065,-1.5142,-1.5244,-1.5288,-1.5363,-1.5416,-1.551,-1.5507,-1.5639,-1.5603,-1.5657,-1.5703,-1.5707,-1.5723,-1.5717,-1.5742,-1.5789,-1.5798,-1.5735,-1.5733,-1.5732,0,-1.4495,-1.4653,-1.4752,-1.4802,-1.4946,-1.4991,-1.5054,-1.5155,-1.5217,-1.5312,-1.5353,-1.5457,-1.5515,-1.5595,-1.5675,-1.5665,-1.58,-1.5803,-1.5841,-1.5839,-1.5867,-1.5865,-1.5925,-1.5898,-1.5898,-1.5898,-1.5897,0,-1.4548,-1.4626,-1.4749,-1.481,-1.4901,-1.4985,-1.5072,-1.514,-1.5229,-1.5306,-1.5368,-1.5439,-1.554,-1.5624,-1.5687,-1.5788,-1.5813,-1.5852,-1.5868,-1.5848,-1.5843,-1.5885,-1.5884,-1.59,-1.59,-1.5899,-1.5899,0,-1.4551,-1.4635,-1.4749,-1.4876,-1.491,-1.4971,-1.508,-1.5143,-1.5211,-1.5307,-1.5335,-1.5442,-1.5544,-1.5631,-1.5766,-1.5808,-1.5913,-1.5931,-1.5878,-1.5887,-1.5921,-1.5917,-1.6012,-1.603,-1.5988,-1.5988,-1.5988,0,-1.458,-1.4642,-1.4775,-1.4831,-1.4892,-1.498,-1.5044,-1.513,-1.5194,-1.5316,-1.5364,-1.5471,-1.5561,-1.5721,-1.5811,-1.5915,-1.5938,-1.5964,-1.5954,-1.5932,-1.5941,-1.5937,-1.5945,-1.5965,-1.5965,-1.5965,-1.5965,0,-1.4623,-1.4662,-1.4751,-1.4855,-1.4929,-1.5016,-1.5104,-1.5146,-1.5248,-1.5317,-1.5422,-1.5491,-1.5629,-1.5734,-1.5848,-1.5914,-1.5957,-1.5967,-1.5982,-1.5962,-1.593,-1.595,-1.5881,-1.5965,-1.5965,-1.5965,-1.5965,-1.5965,-1.4641,-1.47,-1.4803,-1.4901,-1.4976,-1.5057,-1.5123,-1.5199,-1.5288,-1.5406,-1.5451,-1.5559,-1.5661,-1.5818,-1.5884,-1.597,-1.5977,-1.5997,-1.6003,-1.6007,-1.6005,-1.5914,-1.5991,-1.5991,-1.5991,-1.5991,-1.5992,0,-1.4689,-1.4759,-1.4848,-1.4969,-1.5046,-1.5079,-1.5178,-1.5241,-1.5335,-1.5426,-1.5513,-1.5635,-1.5738,-1.5836,-1.5944,-1.5995,-1.6017,-1.602,-1.6019,-1.6034,-1.5992,-1.597,-1.6,-1.6,-1.6,-1.6,-1.6,-1.6,-1.4724,-1.4825,-1.4876,-1.5017,-1.5086,-1.5192,-1.5246,-1.5322,-1.5395,-1.5528,-1.5613,-1.5676,-1.5772,-1.5887,-1.5984,-1.601,-1.6048,-1.6046,-1.6078,-1.6038,-1.6036,-1.6034,-1.6014,-1.6053,-1.6053,-1.6113,-1.6114,-1.6114]}]]